Tracking 35331 objects as of 17-Sep-2026
HD Live streaming from Space Station
objects crossing your sky now

STARLINK-38241

Track STARLINK-38241 now!
10-day predictions
STARLINK-38241 is classified as:


NORAD ID: 100225
Int'l Code: 2026-177N
Launch date: August 4, 2026
Source: United States (US)
Launch site: AIR FORCE WESTERN TEST RANGE (AFWTR)
Your satellite tracking list
Your tracking list is empty




NASA's NSSDC Master Catalog

Two Line Element Set (TLE):
1 A0225U 26177N   26259.10023694  .00029380  00000-0  53946-3 0  9993
2 A0225  97.2834 309.9215 0001414  90.1908 269.9505 15.49209439  7751
Source of the keplerian elements: AFSPC